EN

Hourly Weather Dzielec

Today, 26 October, Monday

Time Temperature Precipitation Wind Pressure Humidity
00:00 +11°C° 0 mm 3 mps 734 mmHg 94%
01:00 +11°C° 0 mm 3 mps 734 mmHg 94%
02:00 +11°C° 0 mm 3 mps 734 mmHg 93%
03:00 +11°C° 0 mm 3 mps 734 mmHg 93%
04:00 +11°C° 0 mm 4 mps 734 mmHg 92%
05:00 +11°C° 0 mm 4 mps 734 mmHg 92%
06:00 +11°C° 0 mm 4 mps 734 mmHg 92%
07:00 +11°C° 0 mm 4 mps 734 mmHg 92%
08:00 +12°C° 0 mm 5 mps 734 mmHg 88%
09:00 +13°C° 0 mm 6 mps 733 mmHg 85%
10:00 +14°C° 0 mm 6 mps 733 mmHg 81%
11:00 +14°C° 0 mm 7 mps 733 mmHg 79%
12:00 +15°C° 0 mm 7 mps 733 mmHg 77%
13:00 +15°C° 0 mm 7 mps 733 mmHg 75%
14:00 +14°C° 0 mm 6 mps 733 mmHg 77%
15:00 +14°C° 0 mm 6 mps 733 mmHg 80%
16:00 +13°C° 0 mm 5 mps 733 mmHg 82%
17:00 +13°C° 0 mm 5 mps 733 mmHg 84%
18:00 +13°C° 0 mm 5 mps 733 mmHg 85%
19:00 +13°C° 0 mm 5 mps 733 mmHg 86%
20:00 +13°C° 0 mm 5 mps 733 mmHg 86%
21:00 +13°C° 0 mm 5 mps 733 mmHg 87%
22:00 +13°C° 0 mm 5 mps 733 mmHg 87%
23:00 +13°C° 0 mm 5 mps 734 mmHg 87%

Tomorrow, 27 October, Tuesday

Time Temperature Precipitation Wind Pressure Humidity
00:00 +13°C° 0 mm 5 mps 734 mmHg 87%
01:00 +12°C° 0 mm 5 mps 734 mmHg 88%
02:00 +12°C° 0 mm 5 mps 734 mmHg 88%
03:00 +12°C° 0 mm 5 mps 734 mmHg 88%
04:00 +12°C° 0 mm 5 mps 734 mmHg 89%
05:00 +12°C° 0 mm 5 mps 734 mmHg 89%
06:00 +12°C° 0 mm 5 mps 734 mmHg 90%
07:00 +11°C° 0 mm 4 mps 734 mmHg 90%
08:00 +13°C° 0 mm 5 mps 734 mmHg 83%
09:00 +14°C° 0 mm 5 mps 734 mmHg 77%
10:00 +16°C° 0 mm 5 mps 735 mmHg 70%
11:00 +16°C° 0 mm 5 mps 734 mmHg 68%
12:00 +17°C° 0 mm 5 mps 734 mmHg 65%
13:00 +17°C° 0 mm 5 mps 734 mmHg 63%
14:00 +17°C° 0 mm 4 mps 734 mmHg 68%
15:00 +15°C° 0 mm 4 mps 734 mmHg 74%
16:00 +14°C° 0 mm 3 mps 734 mmHg 80%
17:00 +13°C° 0 mm 3 mps 734 mmHg 82%
18:00 +13°C° 0 mm 3 mps 734 mmHg 85%
19:00 +12°C° 0 mm 3 mps 734 mmHg 88%
20:00 +13°C° 0 mm 2 mps 735 mmHg 88%
21:00 +12°C° 0 mm 2 mps 735 mmHg 89%
22:00 +12°C° 0 mm 2 mps 735 mmHg 90%
23:00 +12°C° 0 mm 2 mps 735 mmHg 90%

Day after tomorrow, 28 October, Wednesday

Time Temperature Precipitation Wind Pressure Humidity
00:00 +12°C° 0 mm 1 mps 735 mmHg 90%
01:00 +11°C° 0 mm 1 mps 735 mmHg 89%
02:00 +11°C° 0 mm 1 mps 735 mmHg 89%
03:00 +11°C° 0 mm 1 mps 735 mmHg 89%
04:00 +11°C° 0 mm 1 mps 736 mmHg 89%
05:00 +10°C° 0 mm 0 mps 736 mmHg 89%
06:00 +10°C° 0 mm 0 mps 736 mmHg 89%
07:00 +10°C° 0 mm 0 mps 736 mmHg 89%
08:00 +11°C° 0 mm 0 mps 736 mmHg 83%
09:00 +14°C° 0 mm 1 mps 737 mmHg 78%
10:00 +15°C° 0 mm 1 mps 737 mmHg 73%
11:00 +16°C° 0 mm 1 mps 737 mmHg 70%
12:00 +18°C° 0 mm 1 mps 736 mmHg 68%
13:00 +18°C° 0 mm 1 mps 736 mmHg 65%
14:00 +16°C° 0 mm 1 mps 736 mmHg 71%
15:00 +15°C° 0 mm 1 mps 736 mmHg 76%
16:00 +14°C° 0 mm 1 mps 736 mmHg 81%
17:00 +13°C° 0 mm 1 mps 736 mmHg 84%
18:00 +13°C° 0 mm 1 mps 736 mmHg 87%
19:00 +12°C° 0 mm 1 mps 736 mmHg 90%
20:00 +12°C° 0 mm 1 mps 737 mmHg 90%
21:00 +12°C° 0 mm 1 mps 737 mmHg 90%
22:00 +11°C° 0 mm 1 mps 737 mmHg 91%
23:00 +11°C° 0 mm 1 mps 737 mmHg 91%

29 October, Thursday

Time Temperature Precipitation Wind Pressure Humidity
00:00 +11°C° 0 mm 1 mps 737 mmHg 91%
01:00 +11°C° 0 mm 1 mps 737 mmHg 92%
02:00 +10°C° 0 mm 1 mps 737 mmHg 92%
03:00 +10°C° 0 mm 1 mps 737 mmHg 92%
04:00 +10°C° 0 mm 1 mps 737 mmHg 93%
05:00 +10°C° 0 mm 1 mps 737 mmHg 93%
06:00 +10°C° 0 mm 1 mps 738 mmHg 93%
07:00 +10°C° 0 mm 1 mps 738 mmHg 93%
08:00 +12°C° 0 mm 1 mps 738 mmHg 87%
09:00 +14°C° 0 mm 1 mps 738 mmHg 81%
10:00 +15°C° 0 mm 1 mps 739 mmHg 75%
11:00 +16°C° 0 mm 1 mps 739 mmHg 70%
12:00 +16°C° 0 mm 1 mps 739 mmHg 66%
13:00 +18°C° 0 mm 1 mps 739 mmHg 62%
14:00 +16°C° 0 mm 1 mps 739 mmHg 66%
15:00 +15°C° 0 mm 1 mps 739 mmHg 71%
16:00 +14°C° 0 mm 1 mps 739 mmHg 76%
17:00 +13°C° 0 mm 1 mps 739 mmHg 79%
18:00 +12°C° 0 mm 1 mps 740 mmHg 82%
19:00 +11°C° 0 mm 1 mps 740 mmHg 85%
20:00 +11°C° 0 mm 1 mps 740 mmHg 85%
21:00 +11°C° 0 mm 1 mps 741 mmHg 86%
22:00 +11°C° 0 mm 1 mps 741 mmHg 86%
23:00 +11°C° 0 mm 1 mps 741 mmHg 85%

30 October, Friday

Time Temperature Precipitation Wind Pressure Humidity
00:00 +11°C° 0 mm 1 mps 741 mmHg 85%
01:00 +11°C° 0 mm 1 mps 742 mmHg 84%
02:00 +11°C° 0 mm 1 mps 742 mmHg 84%
03:00 +10°C° 0 mm 1 mps 742 mmHg 85%
04:00 +10°C° 0 mm 1 mps 742 mmHg 85%
05:00 +10°C° 0 mm 1 mps 742 mmHg 85%
06:00 +10°C° 0 mm 1 mps 742 mmHg 85%
07:00 +9°C° 0 mm 2 mps 742 mmHg 85%
08:00 +10°C° 0 mm 2 mps 742 mmHg 79%
09:00 +12°C° 0 mm 3 mps 742 mmHg 74%
10:00 +14°C° 0 mm 3 mps 743 mmHg 69%
11:00 +14°C° 0 mm 3 mps 743 mmHg 68%
12:00 +16°C° 0 mm 3 mps 743 mmHg 67%
13:00 +16°C° 0 mm 3 mps 743 mmHg 66%
14:00 +14°C° 0 mm 3 mps 743 mmHg 71%
15:00 +13°C° 0 mm 3 mps 743 mmHg 76%
16:00 +12°C° 0 mm 3 mps 743 mmHg 81%
17:00 +12°C° 0 mm 3 mps 743 mmHg 84%
18:00 +11°C° 0 mm 3 mps 743 mmHg 87%
19:00 +10°C° 0 mm 3 mps 743 mmHg 89%
20:00 +10°C° 0 mm 3 mps 743 mmHg 89%
21:00 +10°C° 0 mm 3 mps 743 mmHg 89%
22:00 +10°C° 0 mm 3 mps 743 mmHg 89%
23:00 +10°C° 0 mm 3 mps 743 mmHg 89%

31 October, Saturday

Time Temperature Precipitation Wind Pressure Humidity
00:00 +10°C° 0 mm 3 mps 743 mmHg 90%
01:00 +9°C° 0 mm 3 mps 743 mmHg 90%
02:00 +9°C° 0 mm 3 mps 743 mmHg 91%
03:00 +9°C° 0 mm 3 mps 743 mmHg 92%
04:00 +8°C° 0 mm 2 mps 743 mmHg 92%
05:00 +8°C° 0 mm 2 mps 743 mmHg 92%
06:00 +8°C° 0 mm 2 mps 743 mmHg 92%
07:00 +8°C° 0 mm 2 mps 743 mmHg 92%
Show more